Find Starlink 36858

NORAD ID: 68021 Int'l Des: 2026-040 Owner: SPXS Country: US Constellation: starlink operational
LEOCIRCULARRETROGRADE

Live Position

Loading 3D Globe...

About Starlink 36858

Description loading...

Upcoming Passes

Passes for default location (London). Set your location on the main map for personalized predictions.

Altitude History

Loading altitude history...

Two-Line Element Set

1 68021U 26040G 26106.66668980 .00038304 00000-0 11836-2 0 9992
2 68021 97.2864 56.2089 0001721 93.7052 212.7421 15.33421624 6020
Epoch: Apr 16, 2026 • Age: 8 hours

Current Status

Altitude 491.4 km
Velocity 7.62 km/s
Sub-Earth Point -65.10°S, 21.98°E
Launch Date Mar 1, 2026
Age 0.1 years
Type internet

Technical Details

Classification Payload
Mass 575.00 kg
Dry Mass 530.00 kg
Total Mass 575.00 kg
Length 0.30 m
Diameter 4.10 m
Span 29.00 m
Shape Box + pan
Manufacturer SPXS
Bus Type Starlink V2MO
Phase Status In Orbit
Owner/State SPXS/US

Most Searched